Corpus Christi, TX

5:46 PM CST on December 09, 2016 (GMT -0600)
Tadpole Moat | | Change Station

Elev 30 ft 27.75 °N, 97.38 °W | Updated 7 seconds ago

Overcast
Overcast
49.1 °F
Feels Like 49 °F
N
0.0
Wind Variable Wind from ESE
Gusts 0.0 mph

Today
High -- | Low -- °F
--% Chance of Precip.
Yesterday
High -- | Low -- °F
Precip. -- in
Pressure 30.50 in
Visibility 10.0 miles
Clouds Overcast 6000 ft
Windchill 49 °F
Dew Point 20 °F
Humidity 32%
Rainfall 0.00 in
Snow Depth Not available.
7:09 AM 5:35 PM
Waxing Gibbous, 78% visible
METAR KCRP 092251Z 02005KT 10SM OVC060 09/M02 A3050 RMK AO2 SLP328 T00891017
Pressure 30.50 in
Visibility 10.0 miles
Clouds Overcast 6000 ft
Windchill 49 °F
Dew Point 20 °F
Humidity 32%
Rainfall 0.00 in
Snow Depth Not available.
7:09 AM 5:35 PM
Waxing Gibbous, 78% visible
METAR KCRP 092251Z 02005KT 10SM OVC060 09/M02 A3050 RMK AO2 SLP328 T00891017

10-Day Weather Forecast

Almanac

Astronomy

Dec. 09, 2016 Rise Set
Actual Time
Civil Twilight
Nautical Twilight
Astronomical Twilight
Moon
Length of Visible Light
Length of Day
Tomorrow will be .
, % of the Moon is Illuminated

Today's Extremes

State Highs State Lows

Community

WunderPhotos

Upload Photos

1,956,535 photos uploaded!

WunderBlog® & News

Nearby

Air Quality

  Air Quality AQ Index Pollutant
Not available.

Snow Depth

Station Depth Elevation

Earthquake Activity

City Distance Mag. Time & Date
Minimum magnitude displayed is 2.5.

Coastal Water Temperatures

Place Temperature

Stations

Nearby Weather Stations

Station Location Temp. Windchill Dew Point Humidity Wind Precip. Elev Updated Type
                   

Watches & Warnings

There are currently no watches in effect.